Weather History for EHGR - March, 2013

Change the Weather History Date:

Friday, March 8, 2013

  Actual Average Record
Temperature  
Mean Temperature 53 °F -  
Max Temperature 60 °F 51 °F 64 °F (2014)
Min Temperature 46 °F 36 °F 26 °F (2004)
Degree Days  
Heating Degree Days 12    
Growing Degree Days 3 (Base 50)    
Moisture  
Dew Point 47 °F    
Average Humidity 82    
Maximum Humidity 100    
Minimum Humidity 63    
Precipitation  
Precipitation 0.00 in - - ()
Sea Level Pressure  
Sea Level Pressure 29.45 in    
Wind  
Wind Speed 7 mph ()    
Max Wind Speed 12 mph    
Max Gust Speed -    
Visibility 3.9 miles    
Events Rain    
Averages and records for this station are not official NWS values.
T = Trace of Precipitation, MM = Missing Value Source: Averaged Metar Reports

Daily Weather History Graph

Daily Weather History Graph

Search for Another Location

Airport or City:

Trip Planner

Search our weather history database for the weather conditions in past years. The results will help you decide how hot, cold, wet, or windy it might be!

Date:

Astronomy

Mar. 08, 2013 Rise Set
Actual Time 7:09 AM CET 6:32 PM CET
Civil Twilight 6:36 AM CET 7:06 PM CET
Nautical Twilight 5:58 AM CET 7:45 PM CET
Astronomical Twilight 5:18 AM CET 8:24 PM CET
Moon 5:04 AM CET (3/8) 2:51 PM CET (3/8)
Length of Visible Light 12h 29m
Length of Day
11h 22m
Waning Crescent, 14% of the Moon is Illuminated
Mar 8
Waning Crescent
Mar 11
New
Mar 19
First Quarter
Mar 27
Full
Apr 3
Last Quarter

Hourly Weather History & Observations

Time (CET) Temp. Windchill Dew Point Humidity Pressure Visibility Wind Dir Wind Speed Gust Speed Precip Events Conditions
12:25 AM 48.2 °F - 42.8 °F 82% 29.47 in 3.7 mi ESE 4.6 mph - N/A   Haze
12:55 AM 48.2 °F - 42.8 °F 82% 29.44 in 3.7 mi ESE 4.6 mph - N/A   Overcast
1:06 AM 48.2 °F - 42.8 °F 82% 29.44 in 3.7 mi ESE 4.6 mph - N/A   Mostly Cloudy
1:25 AM 46.4 °F 43.5 °F 42.8 °F 87% 29.44 in 3.7 mi East 5.8 mph - N/A   Overcast
1:29 AM 46.4 °F 43.5 °F 42.8 °F 87% 29.44 in 3.7 mi East 5.8 mph - N/A   Overcast
1:55 AM 46.4 °F 43.5 °F 44.6 °F 93% 29.44 in 3.7 mi East 5.8 mph - N/A   Overcast
2:12 AM 48.2 °F - 44.6 °F 87% 29.44 in - ESE 5.8 mph - N/A   Overcast
2:16 AM 48.2 °F - 44.6 °F 87% 29.44 in 3.1 mi ESE 6.9 mph - N/A   Overcast
2:20 AM 48.2 °F - 44.6 °F 87% 29.44 in - ESE 6.9 mph - N/A   Overcast
2:25 AM 48.2 °F - 44.6 °F 87% 29.44 in 3.1 mi ESE 6.9 mph - N/A   Overcast
2:29 AM 48.2 °F - 44.6 °F 87% 29.44 in - ESE 5.8 mph - N/A   Overcast
2:33 AM 48.2 °F - 44.6 °F 87% 29.44 in 3.1 mi ESE 5.8 mph - N/A   Overcast
2:46 AM 48.2 °F - 44.6 °F 87% 29.44 in 3.1 mi East 4.6 mph - N/A   Overcast
2:55 AM 48.2 °F - 44.6 °F 87% 29.44 in - East 5.8 mph - N/A   Overcast
3:25 AM 48.2 °F - 44.6 °F 87% 29.44 in - ESE 4.6 mph - N/A   Overcast
3:30 AM 48.2 °F - 44.6 °F 87% 29.44 in 3.1 mi ESE 5.8 mph - N/A   Overcast
3:38 AM 48.2 °F - 44.6 °F 87% 29.44 in - East 5.8 mph - N/A   Overcast
3:42 AM 48.2 °F - 44.6 °F 87% 29.44 in 3.1 mi East 5.8 mph - N/A   Overcast
3:55 AM 48.2 °F - 44.6 °F 87% 29.44 in 3.1 mi East 5.8 mph - N/A   Overcast
4:00 AM 48.2 °F - 46.4 °F 93% 29.44 in - East 4.6 mph - N/A   Overcast
4:04 AM 48.2 °F - 46.4 °F 93% 29.44 in 3.1 mi East 4.6 mph - N/A   Overcast
4:17 AM 48.2 °F - 46.4 °F 93% 29.44 in 3.1 mi East 5.8 mph - N/A   Overcast
4:25 AM 48.2 °F - 46.4 °F 93% 29.44 in - East 4.6 mph - N/A   Overcast
4:29 AM 48.2 °F - 46.4 °F 93% 29.44 in 3.1 mi East 4.6 mph - N/A   Overcast
4:40 AM 48.2 °F - 46.4 °F 93% 29.44 in - East 4.6 mph - N/A   Overcast
4:49 AM 48.2 °F - 46.4 °F 93% 29.44 in 3.1 mi ENE 4.6 mph - N/A   Overcast
4:55 AM 48.2 °F - 46.4 °F 93% 29.44 in - East 3.5 mph - N/A   Overcast
5:13 AM 48.2 °F - 46.4 °F 93% 29.44 in 3.1 mi East 3.5 mph - N/A   Overcast
5:17 AM 48.2 °F - 46.4 °F 93% 29.44 in - ENE 3.5 mph - N/A   Overcast
5:25 AM 46.4 °F 44.3 °F 44.6 °F 93% 29.44 in - NE 4.6 mph - N/A   Overcast
5:55 AM 46.4 °F 45.2 °F 44.6 °F 93% 29.44 in - NE 3.5 mph - N/A   Overcast
6:25 AM 46.4 °F 44.3 °F 44.6 °F 93% 29.44 in - NE 4.6 mph - N/A   Overcast
6:41 AM 46.4 °F 43.5 °F 46.4 °F 100% 29.44 in - NE 5.8 mph - N/A   Overcast
6:45 AM 46.4 °F 43.5 °F 46.4 °F 100% 29.44 in - ENE 5.8 mph - N/A   Overcast
6:55 AM 46.4 °F 43.5 °F 46.4 °F 100% 29.44 in - ENE 5.8 mph - N/A   Overcast
7:01 AM 46.4 °F 44.3 °F 46.4 °F 100% 29.44 in 2.2 mi ENE 4.6 mph - N/A   Overcast
7:02 AM 46.4 °F 44.3 °F 46.4 °F 100% 29.44 in - ENE 4.6 mph - N/A   Overcast
7:16 AM 46.4 °F 44.3 °F 46.4 °F 100% 29.44 in - ENE 4.6 mph - N/A   Overcast
7:25 AM 46.4 °F 44.3 °F 46.4 °F 100% 29.44 in - ENE 4.6 mph - N/A   Overcast
7:35 AM 46.4 °F 44.3 °F 46.4 °F 100% 29.44 in - ENE 4.6 mph - N/A   Overcast
7:55 AM 46.4 °F 42.9 °F 46.4 °F 100% 29.44 in 2.5 mi ENE 6.9 mph - N/A   Mostly Cloudy
8:25 AM 48.2 °F - 46.4 °F 93% 29.44 in - ENE 6.9 mph - N/A   Overcast
8:28 AM 48.2 °F - 46.4 °F 93% 29.44 in - ENE 6.9 mph - N/A   Overcast
8:38 AM 48.2 °F - 46.4 °F 93% 29.47 in 3.1 mi ENE 6.9 mph - N/A   Overcast
8:44 AM 48.2 °F - 46.4 °F 93% 29.47 in - ENE 6.9 mph - N/A   Overcast
8:49 AM 48.2 °F - 46.4 °F 93% 29.47 in 3.1 mi ENE 6.9 mph - N/A   Overcast
8:55 AM 48.2 °F - 46.4 °F 93% 29.47 in 3.1 mi ENE 6.9 mph - N/A   Overcast
9:08 AM 50.0 °F - 46.4 °F 87% 29.47 in 3.1 mi ENE 6.9 mph - N/A   Mostly Cloudy
9:25 AM 50.0 °F - 46.4 °F 87% 29.47 in 3.1 mi ENE 8.1 mph - N/A   Overcast
9:55 AM 51.8 °F - 46.4 °F 82% 29.47 in 3.1 mi East 8.1 mph - N/A   Mostly Cloudy
10:25 AM 51.8 °F - 46.4 °F 82% 29.47 in 3.7 mi East 6.9 mph - N/A   Partly Cloudy
10:55 AM 53.6 °F - 48.2 °F 82% 29.44 in 3.7 mi East 8.1 mph - N/A   Mist
11:10 AM 53.6 °F - 48.2 °F 82% 29.44 in 3.7 mi ENE 9.2 mph - N/A   Partly Cloudy
11:25 AM 53.6 °F - 48.2 °F 82% 29.44 in 4.3 mi ENE 9.2 mph - N/A   Scattered Clouds
11:55 AM 55.4 °F - 48.2 °F 77% 29.44 in 4.3 mi ENE 9.2 mph - N/A   Partly Cloudy
12:07 PM 55.4 °F - 48.2 °F 77% 29.44 in 5.0 mi ENE 9.2 mph - N/A   Haze
12:11 PM 55.4 °F - 48.2 °F 77% 29.44 in 4.3 mi East 9.2 mph - N/A   Haze
12:25 PM 55.4 °F - 48.2 °F 77% 29.44 in 4.3 mi East 8.1 mph - N/A   Haze
12:44 PM 55.4 °F - 48.2 °F 77% 29.44 in 5.0 mi ENE 8.1 mph - N/A   Haze
12:48 PM 55.4 °F - 48.2 °F 77% 29.44 in 4.3 mi ENE 9.2 mph - N/A   Haze
12:55 PM 57.2 °F - 50.0 °F 77% 29.44 in 4.3 mi ENE 10.4 mph - N/A   Haze
12:59 PM 57.2 °F - 50.0 °F 77% 29.44 in 5.0 mi East 9.2 mph - N/A   Haze
1:03 PM 57.2 °F - 48.2 °F 72% 29.44 in 4.3 mi East 9.2 mph - N/A   Haze
1:11 PM 57.2 °F - 50.0 °F 77% 29.44 in 5.0 mi ENE 9.2 mph - N/A   Haze
1:15 PM 57.2 °F - 48.2 °F 72% 29.44 in 4.3 mi ENE 9.2 mph - N/A   Haze
1:25 PM 57.2 °F - 48.2 °F 72% 29.44 in 4.3 mi East 9.2 mph - N/A   Haze
1:33 PM 59.0 °F - 48.2 °F 67% 29.44 in 5.0 mi East 10.4 mph - N/A   Haze
1:37 PM 59.0 °F - 50.0 °F 72% 29.44 in 4.3 mi East 10.4 mph - N/A   Haze
1:43 PM 59.0 °F - 50.0 °F 72% 29.44 in 5.0 mi East 10.4 mph - N/A   Haze
1:49 PM 59.0 °F - 48.2 °F 67% 29.44 in 4.3 mi East 11.5 mph - N/A   Haze
1:55 PM 59.0 °F - 48.2 °F 67% 29.44 in 4.3 mi East 9.2 mph - N/A   Haze
2:05 PM 59.0 °F - 48.2 °F 67% 29.44 in 5.0 mi East 9.2 mph - N/A   Haze
2:11 PM 57.2 °F - 48.2 °F 72% 29.44 in 4.3 mi ENE 10.4 mph - N/A   Haze
2:17 PM 59.0 °F - 48.2 °F 67% 29.44 in 5.0 mi ENE 10.4 mph - N/A   Haze
2:21 PM 59.0 °F - 50.0 °F 72% 29.44 in 4.3 mi East 11.5 mph - N/A   Haze
2:25 PM 59.0 °F - 50.0 °F 72% 29.44 in 5.0 mi East 11.5 mph - N/A   Haze
2:35 PM 60.8 °F - 50.0 °F 68% 29.44 in 4.3 mi East 10.4 mph - N/A   Haze
2:39 PM 59.0 °F - 48.2 °F 67% 29.44 in 5.0 mi East 11.5 mph - N/A   Haze
2:43 PM 60.8 °F - 48.2 °F 63% 29.44 in 4.3 mi East 11.5 mph - N/A   Haze
2:55 PM 60.8 °F - 48.2 °F 63% 29.44 in 5.0 mi East 9.2 mph - N/A   Haze
3:00 PM 59.0 °F - 48.2 °F 67% 29.44 in 4.3 mi East 10.4 mph - N/A   Haze
3:04 PM 60.8 °F - 48.2 °F 63% 29.44 in 5.0 mi East 10.4 mph - N/A   Haze
3:12 PM 60.8 °F - 48.2 °F 63% 29.44 in 4.3 mi East 9.2 mph - N/A   Haze
3:16 PM 60.8 °F - 50.0 °F 68% 29.44 in 5.0 mi East 9.2 mph - N/A   Haze
3:20 PM 60.8 °F - 48.2 °F 63% 29.44 in 4.3 mi East 10.4 mph - N/A   Haze
3:25 PM 60.8 °F - 48.2 °F 63% 29.44 in 5.0 mi East 10.4 mph - N/A   Haze
3:38 PM 59.0 °F - 48.2 °F 67% 29.44 in 5.0 mi East 11.5 mph - N/A   Haze
3:40 PM 59.0 °F - 48.2 °F 67% 29.44 in 5.0 mi East 11.5 mph - N/A   Haze
3:55 PM 59.0 °F - 48.2 °F 67% 29.44 in 5.0 mi East 11.5 mph - N/A   Haze
4:03 PM 60.8 °F - 50.0 °F 68% 29.44 in 5.0 mi East 11.5 mph - N/A   Haze
4:07 PM 60.8 °F - 50.0 °F 68% 29.44 in 4.3 mi East 11.5 mph - N/A   Haze
4:11 PM 59.0 °F - 48.2 °F 67% 29.44 in 5.0 mi East 11.5 mph - N/A   Haze
4:25 PM 59.0 °F - 50.0 °F 72% 29.44 in 5.0 mi East 10.4 mph - N/A   Haze
4:37 PM 59.0 °F - 48.2 °F 67% 29.44 in 5.0 mi East 11.5 mph - N/A   Haze
4:55 PM 59.0 °F - 48.2 °F 67% 29.44 in 5.0 mi East 11.5 mph - N/A   Haze
4:59 PM 59.0 °F - 48.2 °F 67% 29.44 in 4.3 mi East 11.5 mph - N/A   Haze
5:25 PM 57.2 °F - 48.2 °F 72% 29.44 in 4.3 mi East 11.5 mph - N/A   Haze
5:55 PM 57.2 °F - 48.2 °F 72% 29.44 in 3.7 mi East 11.5 mph - N/A   Haze
6:25 PM 55.4 °F - 48.2 °F 77% 29.44 in 3.1 mi East 8.1 mph - N/A   Light Drizzle
6:55 PM 53.6 °F - 48.2 °F 82% 29.47 in 3.1 mi East 10.4 mph - N/A   Haze
7:25 PM 53.6 °F - 46.4 °F 77% 29.47 in 3.1 mi East 11.5 mph - N/A   Haze
7:36 PM 53.6 °F - 46.4 °F 77% 29.47 in - East 9.2 mph - N/A   Haze
7:55 PM 53.6 °F - 48.2 °F 82% 29.47 in - East 9.2 mph - N/A   Drizzle
8:25 PM 51.8 °F - 46.4 °F 82% 29.47 in - East 8.1 mph - N/A   Light Drizzle
8:55 PM 51.8 °F - 46.4 °F 82% 29.47 in - East 6.9 mph - N/A   Mostly Cloudy
9:25 PM 50.0 °F - 46.4 °F 87% 29.47 in - East 8.1 mph - N/A   Drizzle
9:33 PM 50.0 °F - 46.4 °F 87% 29.47 in - East 10.4 mph - N/A   Light Drizzle
9:39 PM 50.0 °F - 46.4 °F 87% 29.47 in - East 10.4 mph - N/A   Light Drizzle
9:55 PM 50.0 °F - 46.4 °F 87% 29.47 in 2.2 mi East 9.2 mph - N/A   Drizzle
10:06 PM 50.0 °F - 46.4 °F 87% 29.47 in - East 8.1 mph - N/A   Drizzle
10:10 PM 50.0 °F - 46.4 °F 87% 29.47 in - East 9.2 mph - N/A   Drizzle
10:25 PM 50.0 °F - 46.4 °F 87% 29.47 in - East 8.1 mph - N/A   Drizzle
10:55 PM 48.2 °F - 46.4 °F 93% 29.47 in 1.7 mi East 5.8 mph - N/A Rain Rain
11:25 PM 48.2 °F - 46.4 °F 93% 29.47 in 1.5 mi East 6.9 mph - N/A Rain Light Rain
11:55 PM 48.2 °F - 48.2 °F 100% 29.44 in 1.2 mi ENE 5.8 mph - N/A Rain Light Rain